Regional Weather Roundup
Issued by NWS

Home | Current Version | Previous Version | Graphics & Text | Print | Product List | Glossary On
Versions: 1 2 3 4 5 6 7 8 9 10 11 12 13 14 15 16 17 18 19 20 21 22 23 24 25 26 27 28 29 30 31 32 33 34 35 36 37 38 39 40 41 42 43 44 45 46 47 48 49 50
000
ASUS43 KFSD 190302
RWRSD

WEATHER ROUNDUP FOR SOUTH DAKOTA
NATIONAL WEATHER SERVICE SIOUX FALLS SD
900 PM CST THU DEC 18 2014

NOTE: "FAIR" INDICATES FEW OR NO CLOUDS BELOW 12,000 FEET WITH NO
SIGNIFICANT WEATHER AND/OR OBSTRUCTIONS TO VISIBILITY.


SDZ001>005-009-010-012>017-190400-
NORTHWEST AND NORTH CENTRAL SOUTH DAKOTA

CITY           SKY/WX    TMP DP  RH WIND       PRES   REMARKS
BUFFALO          N/A     30  23  75 SW5       29.89F WCI  25
FAITH            N/A     23  19  85 S14       30.00R WCI  11
MOBRIDGE       CLEAR     24  22  91 S6        30.03R WCI  17
$$

SDZ012>016-024>037-041>051-057-063-072>074-190400-
SOUTHWEST AND SOUTH CENTRAL SOUTH DAKOTA

CITY           SKY/WX    TMP DP  RH WIND       PRES   REMARKS
RAPID CTY ARPT CLEAR     22  19  89 CALM      30.01R
PIERRE         PTCLDY    23  21  92 S7        30.07S WCI  15
CUSTER         CLEAR     26  17  68 W6        29.99R WCI  19
ELLSWORTH AFB  CLEAR     25  20  83 W7        30.00S WCI  17
PHILIP         CLEAR     18  15  88 CALM      30.04S
PINE RIDGE     PTCLDY    21  17  84 NW3       30.04R
WINNER         FAIR      25  22  88 S13       30.08S FOG     WCI  14
$$

SDZ004>011-016>023-039-040-190400-
NORTHEAST SOUTH DAKOTA

CITY           SKY/WX    TMP DP  RH WIND       PRES   REMARKS
ABERDEEN       CLOUDY    26  23  88 S10       30.12S WCI  16
WATERTOWN      CLOUDY    24  22  91 S9        30.12S FOG     WCI  14
SISSETON         N/A     21  19  92 S9        30.15F WCI  11
$$

SDZ017-020-022-023-036>040-048>070-190400-
SOUTHEAST SOUTH DAKOTA

CITY           SKY/WX    TMP DP  RH WIND       PRES   REMARKS
SIOUX FALLS    CLOUDY    27  23  85 S9        30.17S WCI  18
HURON          CLOUDY    26  23  88 S9        30.13F WCI  17
MITCHELL       CLOUDY    28  25  88 S9        30.16S WCI  19
YANKTON        CLOUDY    28  25  86 S6        30.19S WCI  22
$$

ABBREVIATIONS USED IN REMARKS
   TC - TEMPERATURE IN CELSIUS
  WCI - WIND CHILL INDEX
   HX - HEAT INDEX
  VSB - VISIBILITY



USA.gov is the U.S. government's official web portal to all federal, state and local government web resources and services.